OBJECT AY, 61781

Orbit data source: Space-Track

You're viewing an Uncataloged Satellite

Recently launched and/or uncataloged satellites may have evolving metadata. Metadata may include but not limited to: Owner, Maufacturer, Bus, Motor, and Mission.

OBJECT AY, 61781 is a satellite in SSO that was launched on Mon, 04 Nov 2024 UTC via a SOYUZ-2-1B launch vehicle from the Vostochny Cosmodrome (VOSTO). Unknown objects in Earth's orbit typically refer to objects detected orbiting the Earth but have not yet been identified or cataloged. These objects could be anything from previously untracked satellites, spent rocket stages, debris from satellite collisions, or even natural meteoroids temporarily captured by Earth's gravity.

Loading next visibility...
Identifier
61781, 2024-199AY
Orbit
SSO
Country
Flag of TBDTBD
Related business
Flag of RUAmur State University (RU)
Manufacturer
AMGU/HARB
Mission
Operational Amateur Communications
Bus & Motor
CUBESAT 12U, Unknown motor
Mass
~15 kg wet, ~15 kg dry
Launch date (UTC)
2024-11-04 (2 years ago)
Launch vehicle
SOYUZ-2-1B
Launch site
Vostochny Cosmodrome (VOSTO)
Object type
Unknown
Shape & HBR
Box, 0.1 m
Radar Cross Section
0.135 m², Medium (>0.1 m² and < 1m²)

Expand to show TLE details & history
Last TLE update: 7 hours ago

TLE from 7 hours ago
0 OBJECT AY
1 61781U 24199AY  26127.88780356  .00006376  00000-0  18889-3 0  9990
2 61781  97.3051 356.9284 0015919  93.6836 266.6228 15.35088882127748
Epoch: 2026-05-07T21:18Z
TLE epoch observation values (Epoch: 2026-05-07T21:18:26.227Z)
Latitude
-0.00006°
Longitude
171.59164°
Altitude
464.429 km
Speed
7.634 km/s
True Right ascension
23h 47m 42s
True Declination
0° 00' 00"
Sunlit
Object was in daylight at epoch
Visualization orbit readout
Latitude
Unknown
Longitude
Unknown
Altitude
Unknown
Speed
Unknown
Apparent Right ascension
Unknown
Apparent Declination
Unknown
Sunlit
N/A
Visualization observer readout
Local Sidereal Time
12:40:00
Azimuth
Unknown
Elevation
Unknown
Doppler factor
Unknown
Orbital elements
Apogee altitude
468.48 km
Perigee altitude
446.716 km
Semi-major axis
6,835.735 km
Eccentricity
0.00159
Inclination
97.3051°
RAAN
356.9284°
Arg. of periapsis
93.6836°
True anomaly
266.44072°
Mean anomaly
266.6228°
Eccentric anomaly
266.53176°
Mean motion
3.8403 °/min
Orbital period
93.74 mins
BSTAR
0.00018889
Loading maneuver chart data...
Computing Atmospheric mass density...
Loading historical data...
Loading historical data...
Loading historical data...
Loading historical data...
Loading historical data...
Loading historical data...
Loading historical data...

Documentation

Showing up to 5 results
|